DAL4532 KBZN-KMSP

Flight info

Callsign DAL4532
Flight time 1h 34m
Altitude 35000
Route KBZN BOBKT5 BIL DCT UFFDA TORGY4 KMSP
Aircraft B738/M-VGDW/C

Departure

Time 2026-04-26 03:45
Airport Bozeman Yellowstone International Airport (KBZN)

Arrival

Time 2026-04-26 05:20
Airport Minneapolis–Saint Paul International Airport / Wold–Chamberlain Field (KMSP)
Time Latitude Longitude Altitude Speed Heading
2026-04-26 03:23 45.77940 -111.16130 4453 ft 0 kts 217°
2026-04-26 03:38 45.77941 -111.16130 4452 ft 0 kts 217°
2026-04-26 03:40 45.77942 -111.16129 4452 ft 0 kts 217°
2026-04-26 03:40 45.77944 -111.16126 4452 ft 0 kts 217°
2026-04-26 03:40 45.77967 -111.16090 4452 ft 8 kts 255°
2026-04-26 03:41 45.77953 -111.16041 4452 ft 2 kts 313°
2026-04-26 03:41 45.77952 -111.16040 4452 ft 0 kts 313°
2026-04-26 03:42 45.77954 -111.16042 4452 ft 1 kts 313°
2026-04-26 03:42 45.77971 -111.16068 4452 ft 5 kts 313°
2026-04-26 03:42 45.78010 -111.16122 4451 ft 9 kts 317°
2026-04-26 03:43 45.78077 -111.16166 4450 ft 12 kts 27°
2026-04-26 03:43 45.78170 -111.16171 4448 ft 19 kts 318°
2026-04-26 03:43 45.78276 -111.16316 4446 ft 21 kts 315°
2026-04-26 03:43 45.78386 -111.16473 4442 ft 22 kts 314°
2026-04-26 03:44 45.78502 -111.16631 4438 ft 23 kts 316°
2026-04-26 03:44 45.78615 -111.16791 4435 ft 16 kts 317°
2026-04-26 03:44 45.78709 -111.16777 4433 ft 16 kts 47°
2026-04-26 03:44 45.78783 -111.16648 4430 ft 15 kts 69°
2026-04-26 03:45 45.78738 -111.16553 4432 ft 13 kts 135°
2026-04-26 03:45 45.78500 -111.16219 4438 ft 94 kts 136°
2026-04-26 03:45 45.77812 -111.15258 4475 ft 178 kts 136°
2026-04-26 03:45 45.76856 -111.13968 5282 ft 198 kts 139°
2026-04-26 03:46 45.75817 -111.12571 6338 ft 223 kts 134°
2026-04-26 03:46 45.74706 -111.10864 7289 ft 254 kts 134°
2026-04-26 03:46 45.73417 -111.08959 8345 ft 278 kts 135°
2026-04-26 03:47 45.70671 -111.04967 10388 ft 302 kts 135°
2026-04-26 03:47 45.69156 -111.02773 11464 ft 325 kts 136°
2026-04-26 03:47 45.67519 -111.00370 12536 ft 348 kts 132°
2026-04-26 03:47 45.66305 -110.97302 13590 ft 373 kts 110°
2026-04-26 03:48 45.65857 -110.93613 14649 ft 394 kts 94°
2026-04-26 03:48 45.65541 -110.89662 15717 ft 410 kts 97°
2026-04-26 03:48 45.65155 -110.85555 16789 ft 426 kts 98°
2026-04-26 03:48 45.64773 -110.81340 17821 ft 440 kts 94°
2026-04-26 03:49 45.65083 -110.76990 18845 ft 454 kts 76°
2026-04-26 03:49 45.65789 -110.72572 19908 ft 465 kts 76°
2026-04-26 03:49 45.66508 -110.68067 20952 ft 474 kts 77°
2026-04-26 03:49 45.67244 -110.63417 22002 ft 480 kts 77°
2026-04-26 03:50 45.67973 -110.58791 23040 ft 485 kts 77°
2026-04-26 03:50 45.68713 -110.54076 24091 ft 492 kts 78°
2026-04-26 03:50 45.69458 -110.49305 25148 ft 498 kts 77°
2026-04-26 03:50 45.70192 -110.44477 26189 ft 503 kts 80°
2026-04-26 03:51 45.70562 -110.39511 27164 ft 508 kts 83°
2026-04-26 03:51 45.70894 -110.34494 28099 ft 509 kts 85°
2026-04-26 03:51 45.71228 -110.29371 29042 ft 508 kts 85°
2026-04-26 03:51 45.71556 -110.24305 29988 ft 508 kts 85°
2026-04-26 03:52 45.71886 -110.19203 30912 ft 511 kts 85°
2026-04-26 03:52 45.72204 -110.14220 31670 ft 512 kts 85°
2026-04-26 03:52 45.72530 -110.09124 32363 ft 511 kts 85°
2026-04-26 03:52 45.72851 -110.04041 33030 ft 509 kts 85°
2026-04-26 03:53 45.73165 -109.99051 33679 ft 505 kts 85°
2026-04-26 03:53 45.73473 -109.94071 34433 ft 500 kts 85°
2026-04-26 03:53 45.73780 -109.89091 34912 ft 503 kts 85°
2026-04-26 03:53 45.74084 -109.84103 34957 ft 515 kts 85°
2026-04-26 03:54 45.74398 -109.78971 34962 ft 524 kts 85°
2026-04-26 03:54 45.75024 -109.68526 34963 ft 532 kts 85°
2026-04-26 03:55 45.75648 -109.57966 34957 ft 534 kts 85°
2026-04-26 03:55 45.76263 -109.47411 34948 ft 534 kts 85°
2026-04-26 03:56 45.76869 -109.36848 34947 ft 535 kts 85°
2026-04-26 03:56 45.77466 -109.26270 34928 ft 536 kts 86°
2026-04-26 03:57 45.78055 -109.15643 34925 ft 535 kts 86°
2026-04-26 03:57 45.78630 -109.05102 34924 ft 536 kts 86°
2026-04-26 03:58 45.79200 -108.94495 34932 ft 535 kts 86°
2026-04-26 03:58 45.79757 -108.83883 34939 ft 535 kts 86°
2026-04-26 03:59 45.80306 -108.73290 34955 ft 536 kts 86°
2026-04-26 03:59 45.80810 -108.62684 34953 ft 535 kts 90°
2026-04-26 04:00 45.80351 -108.52084 34971 ft 535 kts 95°
2026-04-26 04:00 45.79823 -108.41474 34971 ft 537 kts 95°
2026-04-26 04:01 45.79289 -108.30884 34967 ft 537 kts 96°
2026-04-26 04:01 45.78743 -108.20283 34968 ft 536 kts 96°
2026-04-26 04:02 45.78183 -108.09656 34964 ft 537 kts 96°
2026-04-26 04:02 45.77616 -107.99010 34967 ft 538 kts 96°
2026-04-26 04:03 45.77037 -107.88357 34964 ft 538 kts 95°
2026-04-26 04:03 45.76450 -107.77697 34970 ft 539 kts 96°
2026-04-26 04:04 45.75853 -107.67065 34973 ft 540 kts 96°
2026-04-26 04:04 45.75243 -107.56435 34975 ft 539 kts 96°
2026-04-26 04:05 45.74622 -107.45726 34962 ft 540 kts 96°
2026-04-26 04:05 45.73991 -107.35041 34955 ft 541 kts 96°
2026-04-26 04:06 45.73353 -107.24387 34954 ft 541 kts 96°
2026-04-26 04:06 45.72699 -107.13680 34960 ft 541 kts 96°
2026-04-26 04:07 45.72039 -107.02987 34947 ft 542 kts 96°
2026-04-26 04:07 45.71366 -106.92286 34949 ft 543 kts 96°
2026-04-26 04:08 45.70679 -106.81499 34955 ft 543 kts 96°
2026-04-26 04:08 45.69983 -106.70740 34963 ft 545 kts 96°
2026-04-26 04:09 45.69278 -106.60022 34954 ft 544 kts 96°
2026-04-26 04:09 45.68560 -106.49262 34959 ft 545 kts 96°
2026-04-26 04:10 45.67836 -106.38532 34973 ft 545 kts 96°
2026-04-26 04:10 45.67098 -106.27756 34980 ft 545 kts 97°
2026-04-26 04:11 45.66348 -106.16985 34964 ft 546 kts 97°
2026-04-26 04:11 45.65590 -106.06207 34966 ft 546 kts 97°
2026-04-26 04:12 45.64820 -105.95429 34970 ft 546 kts 97°
2026-04-26 04:12 45.64045 -105.84705 34965 ft 547 kts 97°
2026-04-26 04:13 45.63253 -105.73923 34955 ft 548 kts 97°
2026-04-26 04:13 45.62454 -105.63123 34965 ft 548 kts 97°
2026-04-26 04:14 45.61642 -105.52369 34969 ft 548 kts 97°
2026-04-26 04:14 45.60815 -105.41528 34974 ft 550 kts 97°
2026-04-26 04:15 45.59983 -105.30731 34966 ft 551 kts 98°
2026-04-26 04:15 45.59137 -105.19919 34967 ft 550 kts 98°
2026-04-26 04:16 45.58279 -105.09058 34969 ft 551 kts 98°
2026-04-26 04:16 45.57412 -104.98244 34990 ft 550 kts 98°
2026-04-26 04:17 45.56536 -104.87415 34971 ft 552 kts 98°
2026-04-26 04:17 45.55651 -104.76622 34980 ft 552 kts 98°
2026-04-26 04:18 45.54746 -104.65736 34977 ft 553 kts 98°
2026-04-26 04:18 45.53837 -104.54911 34982 ft 553 kts 98°
2026-04-26 04:19 45.52922 -104.44124 34977 ft 552 kts 98°
2026-04-26 04:19 45.51985 -104.33269 34979 ft 553 kts 99°
2026-04-26 04:20 45.51046 -104.22427 34963 ft 553 kts 99°
2026-04-26 04:20 45.50094 -104.11595 34985 ft 553 kts 99°
2026-04-26 04:21 45.49126 -104.00728 35009 ft 554 kts 99°
2026-04-26 04:21 45.48157 -103.89906 34998 ft 555 kts 99°
2026-04-26 04:22 45.47177 -103.79082 35008 ft 555 kts 99°
2026-04-26 04:22 45.46176 -103.68205 35013 ft 554 kts 99°
2026-04-26 04:23 45.45172 -103.57382 35028 ft 556 kts 99°
2026-04-26 04:23 45.44153 -103.46542 35024 ft 556 kts 99°
2026-04-26 04:24 45.43122 -103.35648 35017 ft 555 kts 99°
2026-04-26 04:24 45.42084 -103.24784 35012 ft 556 kts 100°
2026-04-26 04:25 45.41037 -103.13947 35030 ft 555 kts 100°
2026-04-26 04:25 45.39983 -103.03144 35028 ft 555 kts 100°
2026-04-26 04:26 45.38910 -102.92316 35039 ft 556 kts 100°
2026-04-26 04:26 45.37831 -102.81460 35038 ft 556 kts 100°
2026-04-26 04:27 45.36735 -102.70569 35042 ft 557 kts 100°
2026-04-26 04:27 45.35628 -102.59690 35045 ft 558 kts 100°
2026-04-26 04:28 45.34520 -102.48878 35041 ft 559 kts 100°
2026-04-26 04:28 45.33394 -102.37987 35045 ft 558 kts 101°
2026-04-26 04:29 45.32262 -102.27152 35032 ft 558 kts 101°
2026-04-26 04:29 45.31119 -102.16305 35038 ft 558 kts 102°
2026-04-26 04:30 45.29960 -102.05447 35040 ft 559 kts 102°
2026-04-26 04:30 45.28785 -101.94537 35048 ft 559 kts 102°
2026-04-26 04:31 45.27609 -101.83729 35046 ft 559 kts 101°
2026-04-26 04:31 45.26414 -101.72793 35025 ft 560 kts 101°
2026-04-26 04:32 45.25219 -101.61970 35056 ft 560 kts 102°
2026-04-26 04:32 45.24003 -101.51067 35051 ft 561 kts 102°
2026-04-26 04:33 45.22785 -101.40205 35052 ft 561 kts 102°
2026-04-26 04:33 45.21546 -101.29311 35063 ft 560 kts 103°
2026-04-26 04:34 45.20300 -101.18417 35047 ft 561 kts 103°
2026-04-26 04:34 45.19036 -101.07542 35058 ft 561 kts 103°
2026-04-26 04:35 45.17767 -100.96632 35076 ft 563 kts 103°
2026-04-26 04:35 45.16494 -100.85778 35084 ft 562 kts 103°
2026-04-26 04:36 45.15201 -100.74874 35073 ft 565 kts 103°
2026-04-26 04:36 45.13893 -100.63915 35080 ft 567 kts 103°
2026-04-26 04:37 45.12575 -100.53001 35097 ft 567 kts 103°
2026-04-26 04:37 45.11248 -100.42069 35111 ft 567 kts 103°
2026-04-26 04:38 45.09901 -100.31053 35119 ft 567 kts 104°
2026-04-26 04:38 45.08540 -100.20075 35059 ft 569 kts 104°
2026-04-26 04:39 45.07169 -100.09092 35075 ft 569 kts 104°
2026-04-26 04:39 45.05793 -99.98105 35085 ft 570 kts 104°
2026-04-26 04:40 45.04398 -99.87139 35090 ft 570 kts 104°
2026-04-26 04:40 45.03005 -99.76186 35212 ft 571 kts 104°
2026-04-26 04:40 45.02296 -99.70654 35054 ft 571 kts 104°
2026-04-26 04:41 45.01585 -99.65157 35086 ft 571 kts 104°
2026-04-26 04:41 45.00160 -99.54167 35068 ft 570 kts 104°
2026-04-26 04:42 44.98728 -99.43195 35103 ft 571 kts 104°
2026-04-26 04:42 44.97281 -99.32233 35087 ft 571 kts 104°
2026-04-26 04:43 44.95827 -99.21295 35085 ft 571 kts 105°
2026-04-26 04:43 44.94362 -99.10326 35089 ft 570 kts 104°
2026-04-26 04:44 44.92878 -98.99348 35097 ft 570 kts 104°
2026-04-26 04:44 44.91403 -98.88450 35090 ft 570 kts 104°
2026-04-26 04:45 44.89898 -98.77457 35103 ft 571 kts 104°
2026-04-26 04:45 44.88390 -98.66544 35108 ft 571 kts 104°
2026-04-26 04:46 44.86874 -98.55634 35112 ft 571 kts 104°
2026-04-26 04:46 44.85342 -98.44679 35109 ft 571 kts 104°
2026-04-26 04:47 44.83801 -98.33762 35122 ft 571 kts 105°
2026-04-26 04:47 44.82241 -98.22744 35127 ft 574 kts 105°
2026-04-26 04:48 44.79896 -98.06419 35093 ft 570 kts 104°
2026-04-26 04:48 44.78321 -97.95485 35088 ft 570 kts 105°
2026-04-26 04:49 44.76735 -97.84634 35088 ft 570 kts 104°
2026-04-26 04:49 44.75145 -97.73747 35100 ft 569 kts 105°
2026-04-26 04:50 44.73534 -97.62843 35089 ft 569 kts 104°
2026-04-26 04:50 44.71923 -97.52012 35092 ft 568 kts 105°
2026-04-26 04:51 44.70300 -97.41176 35094 ft 567 kts 105°
2026-04-26 04:51 44.68671 -97.30371 35086 ft 566 kts 105°
2026-04-26 04:52 44.67034 -97.19577 35080 ft 565 kts 105°
2026-04-26 04:52 44.65384 -97.08821 35078 ft 564 kts 105°
2026-04-26 04:53 44.63744 -96.98119 35083 ft 564 kts 105°
2026-04-26 04:53 44.62077 -96.87386 35084 ft 563 kts 105°
2026-04-26 04:54 44.60415 -96.76701 35084 ft 563 kts 105°
2026-04-26 04:54 44.58742 -96.66052 35083 ft 562 kts 105°
2026-04-26 04:55 44.57058 -96.55389 35081 ft 561 kts 105°
2026-04-26 04:55 44.55362 -96.44720 35089 ft 561 kts 105°
2026-04-26 04:56 44.53662 -96.34109 35088 ft 561 kts 106°
2026-04-26 04:56 44.51950 -96.23459 35078 ft 560 kts 106°
2026-04-26 04:57 44.50232 -96.12858 35085 ft 558 kts 106°
2026-04-26 04:57 44.49218 -96.02171 35097 ft 560 kts 92°
2026-04-26 04:58 44.48904 -95.91318 35098 ft 561 kts 95°
2026-04-26 04:58 44.48467 -95.80439 35101 ft 561 kts 95°
2026-04-26 04:59 44.48018 -95.69562 35102 ft 561 kts 95°
2026-04-26 04:59 44.47554 -95.58723 35094 ft 561 kts 95°
2026-04-26 05:00 44.47084 -95.47868 35091 ft 561 kts 95°
2026-04-26 05:00 44.46599 -95.36973 35083 ft 561 kts 95°
2026-04-26 05:01 44.46102 -95.26053 35077 ft 561 kts 95°
2026-04-26 05:01 44.45931 -95.20626 34877 ft 565 kts 88°
2026-04-26 05:01 44.46535 -95.15204 34598 ft 567 kts 73°
2026-04-26 05:02 44.47715 -95.10003 34341 ft 567 kts 71°
2026-04-26 05:02 44.48943 -95.04769 34071 ft 567 kts 71°
2026-04-26 05:02 44.50167 -94.99505 33784 ft 556 kts 71°
2026-04-26 05:02 44.51315 -94.94545 33526 ft 528 kts 71°
2026-04-26 05:03 44.52440 -94.89695 33257 ft 520 kts 71°
2026-04-26 05:03 44.53542 -94.84937 32993 ft 525 kts 71°
2026-04-26 05:03 44.54665 -94.80060 32709 ft 527 kts 72°
2026-04-26 05:03 44.55798 -94.75141 32385 ft 528 kts 72°
2026-04-26 05:04 44.56922 -94.70242 31856 ft 528 kts 72°
2026-04-26 05:04 44.58026 -94.65422 31355 ft 527 kts 72°
2026-04-26 05:04 44.59152 -94.60491 30830 ft 526 kts 72°
2026-04-26 05:04 44.60263 -94.55629 30304 ft 525 kts 73°
2026-04-26 05:05 44.61349 -94.50831 29578 ft 515 kts 73°
2026-04-26 05:05 44.62427 -94.46090 28826 ft 505 kts 73°
2026-04-26 05:05 44.63485 -94.41413 28153 ft 503 kts 73°
2026-04-26 05:05 44.64526 -94.36801 27483 ft 500 kts 73°
2026-04-26 05:06 44.65567 -94.32194 26797 ft 494 kts 74°
2026-04-26 05:06 44.66595 -94.27613 26107 ft 489 kts 74°
2026-04-26 05:06 44.67604 -94.23122 25421 ft 482 kts 74°
2026-04-26 05:06 44.68615 -94.18639 24731 ft 476 kts 74°
2026-04-26 05:07 44.69597 -94.14271 24063 ft 470 kts 74°
2026-04-26 05:07 44.70571 -94.09932 23360 ft 467 kts 74°
2026-04-26 05:07 44.71533 -94.05643 22658 ft 461 kts 74°
2026-04-26 05:07 44.72555 -94.01389 21944 ft 456 kts 66°
2026-04-26 05:08 44.74068 -93.97559 21265 ft 451 kts 65°
2026-04-26 05:08 44.75059 -93.93426 20596 ft 445 kts 74°
2026-04-26 05:08 44.75918 -93.89306 19904 ft 440 kts 75°
2026-04-26 05:08 44.76760 -93.85227 19219 ft 433 kts 75°
2026-04-26 05:09 44.77555 -93.81319 18501 ft 404 kts 75°
2026-04-26 05:09 44.78308 -93.77631 17785 ft 389 kts 74°
2026-04-26 05:09 44.79056 -93.73991 17096 ft 388 kts 74°
2026-04-26 05:09 44.79803 -93.70375 16389 ft 384 kts 74°
2026-04-26 05:10 44.80550 -93.66793 15650 ft 378 kts 74°
2026-04-26 05:10 44.81289 -93.63272 14936 ft 374 kts 74°
2026-04-26 05:10 44.82027 -93.59795 14238 ft 369 kts 74°
2026-04-26 05:10 44.82757 -93.56382 13550 ft 365 kts 74°
2026-04-26 05:11 44.83492 -93.52984 12862 ft 361 kts 74°
2026-04-26 05:11 44.84225 -93.49674 12187 ft 359 kts 74°
2026-04-26 05:11 44.84980 -93.46312 11488 ft 354 kts 74°
2026-04-26 05:11 44.85727 -93.43040 10800 ft 350 kts 74°
2026-04-26 05:12 44.86341 -93.39747 10098 ft 343 kts 89°
2026-04-26 05:12 44.86103 -93.36515 9429 ft 327 kts 112°
2026-04-26 05:12 44.85064 -93.33829 8753 ft 309 kts 136°
2026-04-26 05:12 44.83447 -93.32079 8053 ft 281 kts 161°
2026-04-26 05:13 44.81648 -93.31418 7361 ft 262 kts 172°
2026-04-26 05:13 44.79888 -93.30987 6645 ft 251 kts 172°
2026-04-26 05:13 44.78209 -93.30605 5935 ft 246 kts 172°
2026-04-26 05:13 44.76498 -93.30265 5225 ft 251 kts 172°
2026-04-26 05:14 44.74765 -93.29969 4519 ft 255 kts 172°
2026-04-26 05:14 44.73006 -93.29720 4088 ft 253 kts 172°
2026-04-26 05:14 44.71258 -93.29491 4071 ft 255 kts 173°
2026-04-26 05:14 44.69568 -93.28845 4003 ft 251 kts 144°
2026-04-26 05:15 44.68525 -93.27023 3805 ft 241 kts 109°
2026-04-26 05:15 44.68520 -93.24720 3575 ft 240 kts 72°
2026-04-26 05:15 44.69279 -93.22646 3348 ft 238 kts 63°
2026-04-26 05:15 44.70206 -93.20734 3101 ft 237 kts 42°
2026-04-26 05:16 44.71690 -93.19985 3115 ft 233 kts
2026-04-26 05:16 44.73333 -93.20274 3096 ft 240 kts 354°
2026-04-26 05:16 44.74963 -93.20647 3066 ft 230 kts 354°
2026-04-26 05:16 44.76432 -93.21034 2872 ft 202 kts 353°
2026-04-26 05:17 44.77747 -93.21368 2603 ft 184 kts 352°
2026-04-26 05:17 44.78929 -93.21676 2409 ft 162 kts 352°
2026-04-26 05:17 44.79996 -93.21952 2173 ft 147 kts 352°
2026-04-26 05:17 44.80947 -93.22199 1972 ft 133 kts 352°
2026-04-26 05:18 44.81818 -93.22423 1793 ft 121 kts 351°
2026-04-26 05:18 44.82657 -93.22639 1658 ft 127 kts 352°
2026-04-26 05:18 44.83540 -93.22867 1488 ft 131 kts 351°
2026-04-26 05:18 44.84448 -93.23103 1306 ft 131 kts 351°
2026-04-26 05:19 44.85334 -93.23332 1151 ft 127 kts 351°
2026-04-26 05:19 44.86165 -93.23547 965 ft 117 kts 350°
2026-04-26 05:19 44.86971 -93.23756 836 ft 112 kts 350°
2026-04-26 05:19 44.87607 -93.23921 830 ft 65 kts 349°
2026-04-26 05:20 44.87857 -93.23943 832 ft 17 kts 24°
2026-04-26 05:20 44.87902 -93.23869 833 ft 8 kts 119°
2026-04-26 05:20 44.87847 -93.23831 831 ft 9 kts 170°
2026-04-26 05:20 44.87778 -93.23813 830 ft 10 kts 169°
2026-04-26 05:21 44.87700 -93.23792 829 ft 12 kts 169°
2026-04-26 05:21 44.87622 -93.23753 828 ft 11 kts 125°
2026-04-26 05:21 44.87590 -93.23649 828 ft 11 kts 110°
2026-04-26 05:21 44.87564 -93.23546 828 ft 11 kts 111°
2026-04-26 05:22 44.87535 -93.23447 828 ft 10 kts 113°
2026-04-26 05:22 44.87499 -93.23354 828 ft 12 kts 132°
2026-04-26 05:22 44.87482 -93.23229 828 ft 14 kts 52°
2026-04-26 05:22 44.87553 -93.23126 828 ft 15 kts 44°
2026-04-26 05:23 44.87637 -93.23008 828 ft 19 kts 44°
2026-04-26 05:23 44.87737 -93.22871 830 ft 19 kts 43°
2026-04-26 05:23 44.87825 -93.22739 831 ft 18 kts 45°
2026-04-26 05:23 44.87912 -93.22619 831 ft 17 kts 43°
2026-04-26 05:24 44.87996 -93.22500 831 ft 16 kts 45°
2026-04-26 05:24 44.88077 -93.22384 831 ft 16 kts 46°
2026-04-26 05:24 44.88146 -93.22286 830 ft 5 kts 45°
2026-04-26 05:24 44.88160 -93.22266 830 ft 0 kts 45°
2026-04-26 05:25 44.88165 -93.22259 830 ft 1 kts 45°
2026-04-26 05:26 44.88177 -93.22242 829 ft 3 kts 45°
2026-04-26 05:26 44.88208 -93.22199 829 ft 12 kts 45°
2026-04-26 05:26 44.88290 -93.22096 830 ft 16 kts 36°
2026-04-26 05:26 44.88300 -93.21959 827 ft 15 kts 64°
2026-04-26 05:27 44.88298 -93.21832 827 ft 14 kts 116°
2026-04-26 05:27 44.88248 -93.21707 825 ft 15 kts 120°
2026-04-26 05:27 44.88223 -93.21569 825 ft 14 kts 65°
2026-04-26 05:27 44.88266 -93.21527 825 ft 3 kts 15°
2026-04-26 05:28 44.88288 -93.21517 825 ft 3 kts 18°
2026-04-26 05:28 44.88302 -93.21511 825 ft 0 kts 19°
2026-04-26 05:28 44.88305 -93.21509 825 ft 0 kts 19°